Regional Weather Roundup
Issued by NWS Grand Forks, ND

Home | Current Version | Previous Version | Text Only | Print | Product List | Glossary Off
Versions: 1 2 3 4 5 6 7 8 9 10 11 12 13 14 15 16 17 18 19 20 21 22 23 24 25 26 27 28 29 30 31 32 33 34 35 36 37 38 39 40 41 42 43 44 45 46 47 48 49 50

400
ASUS43 KFGF 252031
RWRFGF
PRAIRIE TO PINES  WEATHER ROUNDUP
NATIONAL WEATHER SERVICE EASTERN NORTH DAKOTA/GRAND FORKS ND
300 PM CDT WED MAY 25 2016

 **SATELLITE DATA USED TO AUGMENT SKY COVER AT AUTOMATED STATIONS**
 *****  WEATHER ACROSS EASTERN NORTH DAKOTA  *****

CITY           SKY/WX    TMP DP  RH WIND       PRES   REMARKS
GRAND FORKS    RAIN      62  60  93 NE10      29.74F FOG
GRAND FRKS AFB RAIN      59  59 100 N12       29.76F FOG
GRAND FRKS NWS   N/A     61 N/A N/A NE10        N/A
DEVILS LAKE    RAIN      58  56  93 N13       29.81F
FARGO          LGT RAIN  65  62  90 SE8       29.68F
WAHPETON ARPT  MOCLDY    72  59  64 SW20G26   29.70R
$$

 ***** WEATHER ACROSS CENTRAL AND WESTERN NORTH DAKOTA  *****

CITY           SKY/WX    TMP DP  RH WIND       PRES   REMARKS
BISMARCK       MOSUNNY   68  58  70 SE6       29.76F
MINOT          CLOUDY    67  56  67 E9        29.76F
JAMESTOWN      NOT AVBL
MINOT AFB      CLOUDY    61  56  84 SE5       29.76F
GARRISON         N/A     65  55  70 SE8       29.76F
WILLISTON      CLOUDY    54  49  83 NW16G26   29.84S
DICKINSON      CLOUDY    55  48  77 NW21G28   29.80S
HETTINGER      PTSUNNY   60  47  61 W20G28    29.84R
$$

 *****  OTHER AIRPORT OBSERVATIONS IN OUR AREA  *****

CITY           SKY/WX    TMP DP  RH WIND       PRES   REMARKS
WALHALLA       RAIN      59  59 100 E12       29.86R
GRAFTON AIRPOR RAIN      59  59 100 NE17G24   29.81F
VALLEY CITY AR MOCLDY    59  59 100 N15G22    29.77S
CANDO          LGT RAIN  57  57 100 NE12G18   29.84F
CAVALIER APRT  RAIN      59  59 100 E10       29.84F VSB 3/4
GWINNER        MOCLDY    66  61  82 NW15      29.74R
SHEYENNE NWR     N/A     66  62  88 W7        29.95S
ROLLA          RAIN      55  55 100 NE12      29.85S
 ***** THE ABOVE OBSERVATIONS ARE NON NWS ARE NOT QUALITY
       CONTROLLED AND MAY MIS-REPORT RAIN FOR SNOW...
$$

  *****  WEATHER ACROSS NORTHERN MINNESOTA  *****

CITY           SKY/WX    TMP DP  RH WIND       PRES   REMARKS
FLAG ISLAND    RAIN      61  55  82 NE7       29.89F
WARROAD        DRIZZLE   57  54  88 E13G18    29.88R
ROSEAU         CLOUDY    59  54  82 E13G21    29.85R
HALLOCK        HVY RAIN  61  57  88 E18G25    29.83F
THF RVR FALLS  CLOUDY    63  57  82 E12       29.80F
BAUDETTE       CLOUDY    62  57  83 E10       29.88F
WASKISH        CLOUDY    66  59  77 E8        29.85F
CROOKSTON      RAIN      61  61 100 E13       29.76F
STEPHEN NDAWN    N/A     61  59  94 E15         N/A
GREENBUSH NDAW   N/A     59  57  94 NE9         N/A
$$
  *****  WEATHER ACROSS CENTRAL AND WEST MINNESOTA  *****

CITY           SKY/WX    TMP DP  RH WIND       PRES   REMARKS
FOSSTON        HVY RAIN  57  55  94 E13G20    29.78F
BEMIDJI        LGT RAIN  60  57  88 E13G23    29.81F
PARK RAPIDS    LGT RAIN  62  58  86 E14G23    29.79F
ELBOW LAKE     CLOUDY    71  63  74 W20       29.75R
WADENA         CLOUDY    64  61  88 SE20G29   29.76F
DETROIT LAKES  RAIN      63  59  88 SE25G35   29.73S
MOORHEAD       LGT RAIN  63  63 100 SE9       29.70S
FERGUS FALLS   PTSUNNY   72  61  68 SW26      29.68F
MORRIS MN      MOSUNNY   75  59  57 SW21G28   29.74S
STAPLES        CLOUDY    66  61  82 E14G24    29.79F
$$
  *****  WEATHER ELSEWHERE ACROSS MINNESOTA  *****

CITY           SKY/WX    TMP DP  RH WIND       PRES   REMARKS
DULUTH         FOG       51  49  92 E17G23    29.95F VSB 3/4
INTRNTL FALLS  CLOUDY    66  55  67 E13       29.92F
ELY            CLOUDY    66  46  48 E8G16     29.94F
CLOQUET        LGT RAIN  48  46  93 E15G23    29.94F
WHEATON        MOSUNNY   75  63  64 SW18G25   29.75R
BRAINERD       CLOUDY    62  59  90 SE8G20    29.85F
HIBBING        MOSUNNY   65  52  62 S10       29.92F
ALEXANDRIA     MOSUNNY   70  63  78 SE16G28   29.78F
SAINT CLOUD    PTSUNNY   68  64  87 E14       29.83F
MINNEAPOLIS    CLOUDY    73  65  75 SE13      29.83S
$$

  *****  WEATHER ACROSS SOUTH DAKOTA  *****

CITY           SKY/WX    TMP DP  RH WIND       PRES   REMARKS
SIOUX FALLS    MOSUNNY   76  60  57 SW8G17    29.81F
BROOKINGS      PTSUNNY   73  60  63 SW13      29.81S
WATERTOWN      MOSUNNY   74  59  59 SW18      29.78S
HURON          MOSUNNY   76  60  57 SW9       29.78S
SISSETON         N/A     75  60  59 W15G26    29.72R
ABERDEEN       PTSUNNY   73  59  61 W9        29.74R
MITCHELL       MOSUNNY   74  61  63 SW12      29.80S
PIERRE         MOSUNNY   73  57  57 W12G20    29.76F
MOBRIDGE       PTSUNNY   72  55  55 NW6       29.73F
RAPID CITY     LGT RAIN  57  47  69 N24G37    29.86R
$$

  *****  SOME WEATHER IN NEARBY STATES *****

CITY           SKY/WX    TMP DP  RH WIND       PRES   REMARKS
GLASGOW MT     CLOUDY    63  44  50 W9        29.84F
GREAT FALLS MT LGT RAIN  61  43  51 SW12      29.84F
CHEYENNE WY    TSTM      56  37  49 SW24G30   30.01R
SCOTTSBLUFF NE MOSUNNY   72  36  26 W13G24    29.92F
OMAHA NE       PTSUNNY   79  62  56 S9        29.83F
DES MOINES IA  CLOUDY    76  63  64 S9        29.86R
DAVENPORT IA   CLOUDY    81  63  54 S15       29.89F
CHICAGO IL     PTSUNNY   83  60  45 S10       29.92F
EAU CLAIRE WI  LGT RAIN  69  65  86 SE6       29.86S
LA CROSSE WI   LGT RAIN  71  67  87 CALM      29.84F
$$

  *****  SOME NATIONAL WEATHER *****

CITY           SKY/WX    TMP DP  RH WIND       PRES   REMARKS
LA GUARDIA NY  PTSUNNY   90  45  21 W12       30.01F
RALEIGH NC     MOSUNNY   86  58  38 W9        30.17F
ATLANTA GA     MOSUNNY   85  53  33 S9        30.20F
NEW ORLEANS LA PTSUNNY   88  72  58 S14       30.11F HX  94
OKLAHOMA CITY  PTSUNNY   87  71  58 S17G26    29.88S HX  93
ALBUQUERQUE NM MOSUNNY   75  16  10 VRB3      30.08F
SALT LAKE CITY PTSUNNY   62  41  46 S7        30.04R
LOS ANGELES CA PTSUNNY   64  52  64 W14G20    30.10F
BOISE ID       MOSUNNY   68  38  33 NW17G25   29.99F
SEATTLE WA     PTSUNNY   62  49  62 SW13      30.17S
$$

*** WEATHER ACROSS MANITOBA...SASKATCHEWAN AND ONTARIO ***
                ***ONTARIO***

CITY           SKY/WX    TMP DP  RH WIND       PRES   REMARKS
GERALDTON      PTSUNNY   72  43  35 VRB2      30.07F
THUNDER BAY    CLOUDY    55  46  71 E10       30.07F
SIOUX LOOKOUT  CLOUDY    63  54  72 E5        30.00
TORONTO        PTSUNNY   84  57  39 W25       30.01F
BIG TROUT LK   PTSUNNY   57  50  77 SE7       30.04F
PICKLE LAKE    PTSUNNY   68  48  49 S9G21     30.03F
DRYDEN         PTSUNNY   64  54  68 E12       29.97F
KENORA         LGT RAIN  63  55  77 E8        29.94F
$$
                *** MANITOBA***

CITY           SKY/WX    TMP DP  RH WIND       PRES   REMARKS
BRANDON        LGT RAIN  59  57  94 NE8       29.86F FOG
DAUPHIN        MOSUNNY   66  55  68 E13       29.86F
ISLAND LAKE    MOSUNNY   68  52  56 E3        29.94F
PILOT MOUND      N/A     55  54  94 N14         N/A
THE PAS        MOSUNNY   64  48  55 N9        29.91F
THOMPSON       MOSUNNY   66  41  39 VRB3      29.92F
WINNIPEG       LGT RAIN  70  52  52 SE25G32   29.86R
LYNN LAKE      PTSUNNY   66  45  45 SW13G22   29.87F
CHURCHILL      LGT RAIN  34  34 100 E17       30.03S WCI  23
GILLAM         MOSUNNY   63  37  39 S9        29.97F
$$
                ***SASKATCHEWAN***

CITY           SKY/WX    TMP DP  RH WIND       PRES   REMARKS
ESTEVAN        LGT RAIN  55  54  94 NE7       29.82F
KINDERSLEY     CLOUDY    55  46  71 N6        29.90S
LLOYDMINSTER   PTSUNNY   63  45  51 VRB2      29.88F
PRINCE ALBERT  MOSUNNY   59  52  77 VRB2      29.91F
REGINA         LGT RAIN  54  48  82 NW14      29.87F
YORKTON        MOSUNNY   68  46  45 SE7       29.85S
N. BATTLEFORD  MOSUNNY   59  48  67 VRB3      29.92F
LA RONGE       MOSUNNY   61  46  59 NE10      29.90F
SASKATOON      PTSUNNY   64  50  59 N8        29.89F
SWIFT CURRENT  MOSUNNY   59  48  67 N7        29.86F
$$
NOTE: THESE ARE AUTOMATED STATIONS WITH LIMITED QUALITY CONTROL
      "FAIR" INDICATES FEW OR NO CLOUDS BELOW 12,000 FEET WITH NO
      SIGNIFICANT WEATHER AND/OR OBSTRUCTIONS TO VISIBILITY.
      SKY/WX - SKY CONDITION AND SIGNIFICANT WEATHER.
      TMP - AIR TEMPERATURE.    DP   - DEWPOINT TEMPERATURE.
      RH  - RELATIVE HUMIDITY.  PRES - PRESSURE.
      HX  - HEAT INDEX.         WCI  - WIND CHILL INDEX.
$




USA.gov is the U.S. government's official web portal to all federal, state and local government web resources and services.